• In Österreich
  • Länderverzeichnis
  • Für 7 Tage
  • Wassertemperatur
  • Satellitenkarten
  • Wetterkarte
  • News
  • Widgets
  • user-avatar
    Anmelden

    Stündliche Wetter Biskira

    Heute, 19 Juli, Donnerstag

    Zeit Temperatur Niederschläge Wind Luftdruck Luftfeuchtigkeit
    00:00 +39°C° 0 mm 3 m/S 750 mmHg 20%
    01:00 +39°C° 0 mm 3 m/S 750 mmHg 21%
    02:00 +38°C° 0 mm 3 m/S 750 mmHg 22%
    03:00 +37°C° 0 mm 3 m/S 750 mmHg 23%
    04:00 +37°C° 0 mm 3 m/S 750 mmHg 24%
    05:00 +37°C° 0 mm 3 m/S 750 mmHg 25%
    06:00 +37°C° 0 mm 2 m/S 751 mmHg 26%
    07:00 +39°C° 0 mm 2 m/S 751 mmHg 24%
    08:00 +40°C° 0 mm 2 m/S 751 mmHg 21%
    09:00 +41°C° 0 mm 2 m/S 751 mmHg 19%
    10:00 +43°C° 0 mm 2 m/S 751 mmHg 16%
    11:00 +46°C° 0 mm 2 m/S 751 mmHg 13%
    12:00 +48°C° 0 mm 3 m/S 751 mmHg 10%
    13:00 +48°C° 0 mm 3 m/S 750 mmHg 9%
    14:00 +50°C° 0 mm 4 m/S 750 mmHg 8%
    15:00 +52°C° 0 mm 5 m/S 750 mmHg 6%
    16:00 +52°C° 0 mm 5 m/S 750 mmHg 7%
    17:00 +50°C° 0 mm 5 m/S 749 mmHg 8%
    18:00 +50°C° 0 mm 5 m/S 749 mmHg 8%
    19:00 +48°C° 0 mm 5 m/S 750 mmHg 11%
    20:00 +47°C° 0 mm 5 m/S 750 mmHg 14%
    21:00 +45°C° 0 mm 5 m/S 751 mmHg 17%
    22:00 +44°C° 0 mm 4 m/S 751 mmHg 17%
    23:00 +43°C° 0 mm 3 m/S 751 mmHg 18%

    Morgen, 20 Juli, Freitag

    Zeit Temperatur Niederschläge Wind Luftdruck Luftfeuchtigkeit
    00:00 +42°C° 0 mm 2 m/S 751 mmHg 18%
    01:00 +41°C° 0 mm 2 m/S 751 mmHg 19%
    02:00 +40°C° 0 mm 2 m/S 751 mmHg 20%
    03:00 +39°C° 0 mm 2 m/S 751 mmHg 22%
    04:00 +39°C° 0 mm 3 m/S 751 mmHg 23%
    05:00 +39°C° 0 mm 3 m/S 751 mmHg 24%
    06:00 +40°C° 0 mm 4 m/S 751 mmHg 25%
    07:00 +41°C° 0 mm 4 m/S 751 mmHg 23%
    08:00 +42°C° 0 mm 5 m/S 752 mmHg 21%
    09:00 +44°C° 0 mm 6 m/S 752 mmHg 19%
    10:00 +45°C° 0 mm 6 m/S 751 mmHg 18%
    11:00 +47°C° 0 mm 6 m/S 751 mmHg 16%
    12:00 +48°C° 0 mm 6 m/S 751 mmHg 15%
    13:00 +48°C° 0 mm 6 m/S 750 mmHg 14%
    14:00 +49°C° 0 mm 6 m/S 750 mmHg 13%
    15:00 +49°C° 0 mm 5 m/S 750 mmHg 12%
    16:00 +49°C° 0 mm 5 m/S 749 mmHg 12%
    17:00 +49°C° 0 mm 5 m/S 749 mmHg 12%
    18:00 +48°C° 0 mm 4 m/S 749 mmHg 12%
    19:00 +47°C° 0 mm 4 m/S 750 mmHg 13%
    20:00 +45°C° 0 mm 4 m/S 750 mmHg 14%
    21:00 +45°C° 0 mm 5 m/S 751 mmHg 15%
    22:00 +43°C° 0 mm 5 m/S 751 mmHg 16%
    23:00 +42°C° 0 mm 6 m/S 751 mmHg 17%

    übermorgen, 21 Juli, Samstag

    Zeit Temperatur Niederschläge Wind Luftdruck Luftfeuchtigkeit
    00:00 +41°C° 0 mm 7 m/S 751 mmHg 18%
    01:00 +40°C° 0 mm 6 m/S 751 mmHg 19%
    02:00 +39°C° 0 mm 6 m/S 751 mmHg 20%
    03:00 +38°C° 0 mm 6 m/S 750 mmHg 21%
    04:00 +38°C° 0 mm 6 m/S 751 mmHg 20%
    05:00 +38°C° 0 mm 6 m/S 751 mmHg 20%
    06:00 +38°C° 0 mm 7 m/S 751 mmHg 19%
    07:00 +39°C° 0 mm 7 m/S 751 mmHg 17%
    08:00 +41°C° 0 mm 7 m/S 751 mmHg 15%
    09:00 +43°C° 0 mm 8 m/S 751 mmHg 13%
    10:00 +44°C° 0 mm 7 m/S 751 mmHg 12%
    11:00 +46°C° 0 mm 7 m/S 751 mmHg 11%
    12:00 +47°C° 0 mm 7 m/S 751 mmHg 11%
    13:00 +48°C° 0 mm 6 m/S 750 mmHg 10%
    14:00 +48°C° 0 mm 5 m/S 750 mmHg 9%
    15:00 +49°C° 0 mm 4 m/S 749 mmHg 9%
    16:00 +49°C° 0 mm 4 m/S 749 mmHg 9%
    17:00 +49°C° 0 mm 4 m/S 749 mmHg 9%
    18:00 +49°C° 0 mm 4 m/S 749 mmHg 9%
    19:00 +47°C° 0 mm 4 m/S 749 mmHg 9%
    20:00 +45°C° 0 mm 4 m/S 749 mmHg 9%
    21:00 +44°C° 0 mm 4 m/S 749 mmHg 10%
    22:00 +44°C° 0 mm 4 m/S 749 mmHg 10%
    23:00 +43°C° 0 mm 5 m/S 749 mmHg 10%

    22 Juli, Sonntag

    Zeit Temperatur Niederschläge Wind Luftdruck Luftfeuchtigkeit
    00:00 +42°C° 0 mm 5 m/S 749 mmHg 11%
    01:00 +42°C° 0 mm 5 m/S 749 mmHg 12%
    02:00 +41°C° 0 mm 6 m/S 749 mmHg 14%
    03:00 +41°C° 0 mm 6 m/S 748 mmHg 15%
    04:00 +41°C° 0 mm 6 m/S 749 mmHg 15%
    05:00 +41°C° 0 mm 7 m/S 749 mmHg 15%
    06:00 +41°C° 0 mm 7 m/S 749 mmHg 15%
    07:00 +43°C° 0 mm 7 m/S 749 mmHg 13%
    08:00 +45°C° 0 mm 7 m/S 749 mmHg 11%
    09:00 +47°C° 0 mm 7 m/S 749 mmHg 9%
    10:00 +49°C° 0 mm 7 m/S 749 mmHg 8%
    11:00 +51°C° 0 mm 7 m/S 748 mmHg 7%
    12:00 +53°C° 0 mm 7 m/S 748 mmHg 6%
    13:00 +53°C° 0 mm 7 m/S 748 mmHg 6%
    14:00 +54°C° 0 mm 8 m/S 747 mmHg 6%
    15:00 +54°C° 0 mm 8 m/S 747 mmHg 6%
    16:00 +53°C° 0 mm 9 m/S 747 mmHg 7%
    17:00 +51°C° 0 mm 9 m/S 747 mmHg 7%
    18:00 +50°C° 0 mm 9 m/S 747 mmHg 8%
    19:00 +49°C° 0 mm 8 m/S 747 mmHg 11%
    20:00 +47°C° 0 mm 7 m/S 748 mmHg 13%
    21:00 +46°C° 0 mm 5 m/S 749 mmHg 16%
    22:00 +43°C° 0 mm 5 m/S 749 mmHg 19%
    23:00 +42°C° 0 mm 5 m/S 749 mmHg 23%

    23 Juli, Montag

    Zeit Temperatur Niederschläge Wind Luftdruck Luftfeuchtigkeit
    00:00 +41°C° 0 mm 5 m/S 749 mmHg 27%
    01:00 +41°C° 0 mm 4 m/S 749 mmHg 28%
    02:00 +40°C° 0 mm 4 m/S 749 mmHg 29%
    03:00 +38°C° 0 mm 4 m/S 749 mmHg 30%
    04:00 +38°C° 0 mm 4 m/S 749 mmHg 31%
    05:00 +37°C° 0 mm 3 m/S 749 mmHg 31%
    06:00 +37°C° 0 mm 3 m/S 750 mmHg 32%
    07:00 +38°C° 0 mm 4 m/S 750 mmHg 28%
    08:00 +40°C° 0 mm 4 m/S 750 mmHg 25%
    09:00 +41°C° 0 mm 5 m/S 750 mmHg 21%
    10:00 +42°C° 0 mm 4 m/S 750 mmHg 18%
    11:00 +43°C° 0 mm 4 m/S 750 mmHg 15%
    12:00 +45°C° 0 mm 4 m/S 749 mmHg 12%
    13:00 +46°C° 0 mm 5 m/S 749 mmHg 11%
    14:00 +47°C° 0 mm 5 m/S 749 mmHg 9%
    15:00 +48°C° 0 mm 6 m/S 749 mmHg 8%
    16:00 +47°C° 0 mm 6 m/S 749 mmHg 9%
    17:00 +47°C° 0 mm 6 m/S 749 mmHg 9%
    18:00 +46°C° 0 mm 6 m/S 749 mmHg 10%
    19:00 +45°C° 0 mm 5 m/S 749 mmHg 12%
    20:00 +42°C° 0 mm 5 m/S 750 mmHg 14%
    21:00 +41°C° 0 mm 4 m/S 750 mmHg 16%
    22:00 +40°C° 0 mm 4 m/S 750 mmHg 19%
    23:00 +38°C° 0 mm 4 m/S 750 mmHg 22%

    24 Juli, Dienstag

    Zeit Temperatur Niederschläge Wind Luftdruck Luftfeuchtigkeit
    00:00 +37°C° 0 mm 4 m/S 750 mmHg 24%
    01:00 +36°C° 0 mm 4 m/S 750 mmHg 28%
    02:00 +35°C° 0 mm 4 m/S 750 mmHg 32%
    03:00 +34°C° 0 mm 3 m/S 750 mmHg 35%
    04:00 +33°C° 0 mm 3 m/S 750 mmHg 36%
    05:00 +33°C° 0 mm 3 m/S 751 mmHg 37%
    06:00 +33°C° 0 mm 3 m/S 751 mmHg 37%
    07:00 +34°C° 0 mm 3 m/S 751 mmHg 35%
    08:00 +35°C° 0 mm 3 m/S 751 mmHg 32%
    09:00 +36°C° 0 mm 3 m/S 751 mmHg 30%
    10:00 +37°C° 0 mm 3 m/S 751 mmHg 27%
    11:00 +39°C° 0 mm 3 m/S 750 mmHg 24%
    12:00 +40°C° 0 mm 3 m/S 750 mmHg 21%
    13:00 +42°C° 0 mm 3 m/S 750 mmHg 20%
    14:00 +42°C° 0 mm 2 m/S 749 mmHg 18%
    15:00 +43°C° 0 mm 2 m/S 749 mmHg 17%
    16:00 +44°C° 0 mm 3 m/S 749 mmHg 17%
    17:00 +44°C° 0 mm 3 m/S 749 mmHg 16%
    18:00 +44°C° 0 mm 3 m/S 749 mmHg 16%
    19:00 +43°C° 0 mm 3 m/S 749 mmHg 17%
    20:00 +42°C° 0 mm 3 m/S 749 mmHg 18%
    21:00 +40°C° 0 mm 2 m/S 750 mmHg 19%
    22:00 +39°C° 0 mm 2 m/S 750 mmHg 20%
    23:00 +39°C° 0 mm 2 m/S 750 mmHg 21%
    Mehr zeigen